| time (UTC) | temp F | wind direction | speed MPH | gust MPH | rain 1hr in | rain 24hr in | rain mn in | humidity % | barometer mb |
| 20260906193057 | 83 | 56 | 2.0 | 5.0 | 0.00 | 0.00 | 0.00 | 55 | 1018.5 |
| 20260906192528 | 83 | 65 | 1.0 | 6.0 | 0.00 | 0.00 | 0.00 | 57 | 1018.5 |
| 20260906192028 | 82 | 80 | 2.0 | 8.0 | 0.00 | 0.00 | 0.00 | 59 | 1018.5 |
| 20260906191551 | 83 | 110 | 1.0 | 8.0 | 0.00 | 0.00 | 0.00 | 58 | 1018.6 |
| 20260906191028 | 82 | 116 | 4.0 | 10.0 | 0.00 | 0.00 | 0.00 | 58 | 1018.5 |
| 20260906190530 | 82 | 0 | 1.0 | 10.0 | 0.00 | 0.00 | 0.00 | 59 | 1018.6 |
| 20260906190110 | 83 | 126 | 3.0 | 9.0 | 0.00 | 0.00 | 0.00 | 57 | 1018.5 |
| 20260906185530 | 83 | 125 | 2.0 | 9.0 | 0.00 | 0.00 | 0.00 | 59 | 1018.6 |
| 20260906185028 | 83 | 105 | 2.0 | 9.0 | 0.00 | 0.00 | 0.00 | 56 | 1018.5 |
| 20260906184551 | 83 | 313 | 1.0 | 7.0 | 0.00 | 0.00 | 0.00 | 59 | 1018.6 |
| 20260906184028 | 83 | 116 | 2.0 | 7.0 | 0.00 | 0.00 | 0.00 | 56 | 1018.7 |
| 20260906183531 | 83 | 80 | 2.0 | 7.0 | 0.00 | 0.00 | 0.00 | 59 | 1018.6 |
| 20260906183050 | 83 | 127 | 2.0 | 8.0 | 0.00 | 0.00 | 0.00 | 61 | 1018.6 |
| 20260906182528 | 82 | 122 | 3.0 | 8.0 | 0.00 | 0.00 | 0.00 | 59 | 1018.7 |
| 20260906182028 | 83 | 89 | 3.0 | 8.0 | 0.00 | 0.00 | 0.00 | 59 | 1018.7 |
| 20260906181543 | 83 | 314 | 2.0 | 6.0 | 0.00 | 0.00 | 0.00 | 60 | 1018.5 |
| 20260906181027 | 83 | 317 | 2.0 | 7.0 | 0.00 | 0.00 | 0.00 | 60 | 1018.6 |
| 20260906180528 | 83 | 150 | 2.0 | 7.0 | 0.00 | 0.00 | 0.00 | 59 | 1018.7 |
| 20260906180048 | 83 | 107 | 2.0 | 6.0 | 0.00 | 0.00 | 0.00 | 60 | 1018.8 |
| 20260906175530 | 82 | 123 | 2.0 | 6.0 | 0.00 | 0.00 | 0.00 | 62 | 1018.8 |
| 20260906175031 | 82 | 327 | 2.0 | 8.0 | 0.00 | 0.00 | 0.00 | 62 | 1018.8 |
| 20260906174547 | 82 | 0 | 3.0 | 8.0 | 0.00 | 0.00 | 0.00 | 60 | 1018.8 |
| 20260906174028 | 82 | 117 | 2.0 | 6.0 | 0.00 | 0.00 | 0.00 | 60 | 1018.9 |
| 20260906173527 | 81 | 322 | 1.0 | 8.0 | 0.00 | 0.00 | 0.00 | 64 | 1019.0 |
| 20260906173054 | 81 | 283 | 2.0 | 8.0 | 0.00 | 0.00 | 0.00 | 64 | 1019.2 |
| 20260906172531 | 82 | 136 | 2.0 | 7.0 | 0.00 | 0.00 | 0.00 | 61 | 1019.3 |
| 20260906172028 | 83 | 138 | 2.0 | 7.0 | 0.00 | 0.00 | 0.00 | 61 | 1019.3 |
| 20260906171554 | 83 | 136 | 1.0 | 7.0 | 0.00 | 0.00 | 0.00 | 61 | 1019.3 |
| 20260906171028 | 83 | 130 | 1.0 | 7.0 | 0.00 | 0.00 | 0.00 | 62 | 1019.2 |
| 20260906170529 | 82 | 315 | 1.0 | 7.0 | 0.00 | 0.00 | 0.00 | 64 | 1019.3 |
| 20260906170046 | 82 | 186 | 2.0 | 7.0 | 0.00 | 0.00 | 0.00 | 62 | 1019.2 |
| 20260906165530 | 82 | 321 | 2.0 | 8.0 | 0.00 | 0.00 | 0.00 | 65 | 1019.2 |
| 20260906165031 | 81 | 301 | 2.0 | 8.0 | 0.00 | 0.00 | 0.00 | 64 | 1019.1 |
| 20260906164548 | 81 | 117 | 3.0 | 8.0 | 0.00 | 0.00 | 0.00 | 63 | 1019.1 |
| 20260906164029 | 81 | 81 | 1.0 | 8.0 | 0.00 | 0.00 | 0.00 | 64 | 1019.4 |
| 20260906163529 | 81 | 115 | 2.0 | 8.0 | 0.00 | 0.00 | 0.00 | 65 | 1019.3 |
| 20260906163045 | 81 | 160 | 3.0 | 8.0 | 0.00 | 0.00 | 0.00 | 65 | 1019.2 |
| 20260906162529 | 80 | 123 | 1.0 | 7.0 | 0.00 | 0.00 | 0.00 | 65 | 1019.3 |
| 20260906162029 | 80 | 90 | 2.0 | 7.0 | 0.00 | 0.00 | 0.00 | 66 | 1019.3 |
| 20260906161553 | 81 | 115 | 2.0 | 7.0 | 0.00 | 0.00 | 0.00 | 64 | 1019.3 |
| 20260906161027 | 81 | 176 | 2.0 | 8.0 | 0.00 | 0.00 | 0.00 | 67 | 1019.3 |
| 20260906160528 | 81 | 342 | 2.0 | 8.0 | 0.00 | 0.00 | 0.00 | 67 | 1019.3 |
| 20260906160104 | 80 | 268 | 3.0 | 8.0 | 0.00 | 0.00 | 0.00 | 67 | 1019.2 |
| 20260906155529 | 80 | 253 | 3.0 | 8.0 | 0.00 | 0.00 | 0.00 | 68 | 1018.9 |
| 20260906155029 | 80 | 129 | 1.0 | 6.0 | 0.00 | 0.00 | 0.00 | 74 | 1018.9 |
| 20260906154557 | 78 | 0 | 1.0 | 6.0 | 0.00 | 0.00 | 0.00 | 75 | 1018.9 |
| 20260906154030 | 78 | 124 | 3.0 | 6.0 | 0.00 | 0.00 | 0.00 | 75 | 1019.0 |
| 20260906153530 | 77 | 87 | 1.0 | 4.0 | 0.00 | 0.00 | 0.00 | 77 | 1019.0 |
| 20260906153044 | 77 | 118 | 1.0 | 4.0 | 0.00 | 0.00 | 0.00 | 77 | 1019.0 |
| 20260906152530 | 77 | 19 | 1.0 | 5.0 | 0.00 | 0.00 | 0.00 | 77 | 1018.9 |
| 20260906152027 | 78 | 329 | 0.0 | 5.0 | 0.00 | 0.00 | 0.00 | 78 | 1018.9 |
| 20260906151551 | 79 | 314 | 1.0 | 5.0 | 0.00 | 0.00 | 0.00 | 76 | 1019.1 |
| 20260906151030 | 80 | 136 | 2.0 | 5.0 | 0.00 | 0.00 | 0.00 | 75 | 1019.0 |
| 20260906150527 | 80 | 110 | 1.0 | 3.0 | 0.00 | 0.00 | 0.00 | 76 | 1019.2 |
| 20260906150055 | 79 | 27 | 0.0 | 4.0 | 0.00 | 0.00 | 0.00 | 78 | 1019.1 |
| 20260906145532 | 78 | 304 | 1.0 | 4.0 | 0.00 | 0.00 | 0.00 | 80 | 1019.0 |
| 20260906145030 | 78 | 320 | 0.0 | 5.0 | 0.00 | 0.00 | 0.00 | 79 | 1019.1 |
| 20260906144547 | 77 | 125 | 1.0 | 5.0 | 0.00 | 0.00 | 0.00 | 81 | 1019.1 |
| 20260906144029 | 77 | 0 | 1.0 | 4.0 | 0.00 | 0.00 | 0.00 | 83 | 1019.1 |
| 20260906143528 | 77 | 357 | 1.0 | 8.0 | 0.00 | 0.00 | 0.00 | 82 | 1019.2 |
| 20260906143053 | 77 | 328 | 1.0 | 8.0 | 0.00 | 0.00 | 0.00 | 83 | 1019.1 |
| 20260906142527 | 76 | 118 | 2.0 | 8.0 | 0.00 | 0.00 | 0.00 | 85 | 1018.9 |
| 20260906142030 | 76 | 0 | 0.0 | 3.0 | 0.00 | 0.00 | 0.00 | 86 | 1019.0 |
| 20260906141554 | 76 | 94 | 0.0 | 4.0 | 0.00 | 0.00 | 0.00 | 86 | 1018.8 |
| 20260906141028 | 76 | 0 | 1.0 | 4.0 | 0.00 | 0.00 | 0.00 | 85 | 1018.8 |
| 20260906140529 | 76 | 112 | 1.0 | 3.0 | 0.00 | 0.00 | 0.00 | 86 | 1018.9 |
| 20260906140051 | 76 | 306 | 1.0 | 3.0 | 0.00 | 0.00 | 0.00 | 86 | 1018.8 |
| 20260906135530 | 75 | 114 | 0.0 | 4.0 | 0.00 | 0.00 | 0.00 | 88 | 1018.9 |
| 20260906135029 | 75 | 96 | 1.0 | 4.0 | 0.00 | 0.00 | 0.00 | 88 | 1018.9 |
| 20260906134557 | 75 | 0 | 0.0 | 4.0 | 0.00 | 0.00 | 0.00 | 89 | 1018.9 |
| 20260906134029 | 74 | 0 | 0.0 | 5.0 | 0.00 | 0.00 | 0.00 | 90 | 1018.9 |
| 20260906133529 | 74 | 60 | 1.0 | 5.0 | 0.00 | 0.00 | 0.00 | 90 | 1018.8 |
| 20260906133107 | 74 | 139 | 0.0 | 4.0 | 0.00 | 0.00 | 0.00 | 89 | 1019.0 |
| 20260906132528 | 74 | 322 | 0.0 | 4.0 | 0.00 | 0.00 | 0.00 | 90 | 1018.9 |
| 20260906132029 | 74 | 129 | 0.0 | 4.0 | 0.00 | 0.00 | 0.00 | 91 | 1018.8 |
| 20260906131552 | 73 | 0 | 1.0 | 4.0 | 0.00 | 0.00 | 0.00 | 91 | 1018.8 |
| 20260906131028 | 73 | 0 | 0.0 | 2.0 | 0.00 | 0.00 | 0.00 | 92 | 1018.8 |
| 20260906130530 | 72 | 0 | 0.0 | 2.0 | 0.00 | 0.00 | 0.00 | 93 | 1018.6 |
| 20260906130051 | 72 | 304 | 0.0 | 2.0 | 0.00 | 0.00 | 0.00 | 93 | 1018.5 |
| 20260906125528 | 72 | 318 | 0.0 | 2.0 | 0.00 | 0.00 | 0.00 | 94 | 1018.7 |
| 20260906125028 | 71 | 0 | 0.0 | 2.0 | 0.00 | 0.00 | 0.00 | 95 | 1018.7 |
| 20260906124546 | 70 | 338 | 0.0 | 2.0 | 0.00 | 0.00 | 0.00 | 95 | 1018.7 |
| 20260906124029 | 70 | 0 | 0.0 | 1.0 | 0.00 | 0.00 | 0.00 | 96 | 1018.7 |
| 20260906123529 | 70 | 297 | 0.0 | 1.0 | 0.00 | 0.00 | 0.00 | 96 | 1018.8 |
| 20260906123047 | 70 | 0 | 0.0 | 1.0 | 0.00 | 0.00 | 0.00 | 96 | 1018.8 |
| 20260906122531 | 70 | 0 | 0.0 | 1.0 | 0.00 | 0.00 | 0.00 | 97 | 1018.5 |
| 20260906122028 | 69 | 0 | 0.0 | 1.0 | 0.00 | 0.00 | 0.00 | 97 | 1018.4 |
| 20260906121543 | 69 | 0 | 0.0 | 1.0 | 0.00 | 0.00 | 0.00 | 97 | 1018.4 |
| 20260906121026 | 69 | 345 | 0.0 | 1.0 | 0.00 | 0.00 | 0.00 | 97 | 1018.4 |
| 20260906120529 | 69 | 0 | 0.0 | 1.0 | 0.00 | 0.00 | 0.00 | 98 | 1018.3 |
| 20260906120054 | 69 | 0 | 0.0 | 1.0 | 0.00 | 0.00 | 0.00 | 98 | 1018.1 |
| 20260906115531 | 69 | 342 | 0.0 | 1.0 | 0.00 | 0.00 | 0.00 | 98 | 1018.1 |
| 20260906115028 | 69 | 0 | 0.0 | 1.0 | 0.00 | 0.00 | 0.00 | 98 | 1017.8 |
| 20260906114559 | 68 | 0 | 0.0 | 1.0 | 0.00 | 0.00 | 0.00 | 98 | 1017.7 |
| 20260906114028 | 68 | 0 | 0.0 | 1.0 | 0.00 | 0.00 | 0.00 | 98 | 1017.7 |
| 20260906113529 | 68 | 0 | 0.0 | 1.0 | 0.00 | 0.00 | 0.00 | 98 | 1017.7 |
| 20260906113043 | 68 | 0 | 0.0 | 1.0 | 0.00 | 0.00 | 0.00 | 98 | 1017.6 |
| 20260906112530 | 68 | 0 | 0.0 | 1.0 | 0.00 | 0.00 | 0.00 | 98 | 1017.6 |
| 20260906112029 | 68 | 342 | 0.0 | 1.0 | 0.00 | 0.00 | 0.00 | 98 | 1017.6 |
| 20260906111543 | 68 | 341 | 0.0 | 1.0 | 0.00 | 0.00 | 0.00 | 98 | 1017.4 |
| 20260906111029 | 68 | 333 | 0.0 | 1.0 | 0.00 | 0.00 | 0.00 | 98 | 1017.4 |
| 20260906110530 | 68 | 331 | 0.0 | 1.0 | 0.00 | 0.00 | 0.00 | 98 | 1017.4 |
| 20260906110053 | 68 | 327 | 0.0 | 1.0 | 0.00 | 0.00 | 0.00 | 98 | 1017.3 |
| 20260906105527 | 68 | 315 | 0.0 | 1.0 | 0.00 | 0.00 | 0.00 | 98 | 1017.1 |
| 20260906105027 | 68 | 0 | 0.0 | 1.0 | 0.00 | 0.00 | 0.00 | 98 | 1017.1 |
| 20260906104602 | 68 | 285 | 0.0 | 1.0 | 0.00 | 0.00 | 0.00 | 98 | 1017.0 |
| 20260906104029 | 68 | 0 | 0.0 | 1.0 | 0.00 | 0.00 | 0.00 | 98 | 1017.0 |
| 20260906103528 | 68 | 0 | 0.0 | 1.0 | 0.00 | 0.00 | 0.00 | 98 | 1017.1 |
| 20260906103046 | 68 | 0 | 0.0 | 1.0 | 0.00 | 0.00 | 0.00 | 98 | 1017.0 |
| 20260906102529 | 68 | 0 | 0.0 | 0.0 | 0.00 | 0.00 | 0.00 | 98 | 1017.0 |
| 20260906102029 | 68 | 0 | 0.0 | 0.0 | 0.00 | 0.00 | 0.00 | 98 | 1017.0 |
| 20260906101556 | 68 | 0 | 0.0 | 0.0 | 0.00 | 0.00 | 0.00 | 97 | 1016.9 |
| 20260906101030 | 69 | 0 | 0.0 | 0.0 | 0.00 | 0.00 | 0.00 | 97 | 1017.0 |
| 20260906100530 | 69 | 0 | 0.0 | 0.0 | 0.00 | 0.00 | 0.00 | 97 | 1017.0 |
| 20260906100053 | 69 | 0 | 0.0 | 1.0 | 0.00 | 0.00 | 0.00 | 97 | 1016.8 |
| 20260906095531 | 69 | 0 | 0.0 | 1.0 | 0.00 | 0.00 | 0.00 | 97 | 1016.7 |
| 20260906095029 | 69 | 313 | 0.0 | 1.0 | 0.00 | 0.00 | 0.00 | 97 | 1016.7 |
| 20260906094549 | 69 | 0 | 0.0 | 1.0 | 0.00 | 0.00 | 0.00 | 97 | 1016.7 |
| 20260906094029 | 69 | 0 | 0.0 | 1.0 | 0.00 | 0.00 | 0.00 | 97 | 1016.6 |
| 20260906093529 | 69 | 0 | 0.0 | 1.0 | 0.00 | 0.00 | 0.00 | 97 | 1016.6 |
| 20260906093058 | 69 | 317 | 0.0 | 1.0 | 0.00 | 0.00 | 0.00 | 97 | 1016.6 |
| 20260906092527 | 69 | 0 | 0.0 | 0.0 | 0.00 | 0.00 | 0.00 | 96 | 1016.7 |
| 20260906092028 | 69 | 0 | 0.0 | 1.0 | 0.00 | 0.00 | 0.00 | 96 | 1016.7 |
| 20260906091553 | 69 | 0 | 0.0 | 1.0 | 0.00 | 0.00 | 0.00 | 96 | 1016.6 |
| 20260906091028 | 70 | 0 | 0.0 | 1.0 | 0.00 | 0.00 | 0.00 | 96 | 1016.6 |
| 20260906090527 | 70 | 0 | 0.0 | 1.0 | 0.00 | 0.00 | 0.00 | 96 | 1016.5 |
| 20260906090054 | 70 | 0 | 0.0 | 2.0 | 0.00 | 0.00 | 0.00 | 96 | 1016.4 |
| 20260906085527 | 70 | 349 | 0.0 | 2.0 | 0.00 | 0.00 | 0.00 | 95 | 1016.6 |
| 20260906085028 | 70 | 0 | 0.0 | 1.0 | 0.00 | 0.00 | 0.00 | 95 | 1016.5 |
| 20260906084548 | 70 | 0 | 0.0 | 1.0 | 0.00 | 0.00 | 0.00 | 95 | 1016.6 |
| 20260906084029 | 70 | 0 | 0.0 | 2.0 | 0.00 | 0.00 | 0.00 | 95 | 1016.5 |
| 20260906083528 | 70 | 0 | 0.0 | 2.0 | 0.00 | 0.00 | 0.00 | 95 | 1016.5 |
| 20260906083047 | 70 | 0 | 0.0 | 1.0 | 0.00 | 0.00 | 0.00 | 95 | 1016.4 |
| 20260906082531 | 70 | 0 | 0.0 | 1.0 | 0.00 | 0.00 | 0.00 | 95 | 1016.3 |
| 20260906082027 | 70 | 315 | 0.0 | 1.0 | 0.00 | 0.00 | 0.00 | 95 | 1016.4 |
| 20260906081548 | 71 | 309 | 0.0 | 1.0 | 0.00 | 0.00 | 0.00 | 94 | 1016.5 |
| 20260906081026 | 71 | 307 | 0.0 | 1.0 | 0.00 | 0.00 | 0.00 | 94 | 1016.6 |
| 20260906080527 | 71 | 0 | 0.0 | 1.0 | 0.00 | 0.00 | 0.00 | 94 | 1016.7 |
| 20260906080054 | 71 | 313 | 0.0 | 1.0 | 0.00 | 0.00 | 0.00 | 94 | 1016.7 |
| 20260906075526 | 71 | 297 | 0.0 | 1.0 | 0.00 | 0.00 | 0.00 | 93 | 1016.7 |
| 20260906075026 | 71 | 0 | 0.0 | 1.0 | 0.00 | 0.00 | 0.00 | 93 | 1016.7 |
| 20260906074542 | 71 | 0 | 0.0 | 1.0 | 0.00 | 0.00 | 0.00 | 92 | 1016.8 |
| 20260906074031 | 72 | 0 | 0.0 | 1.0 | 0.00 | 0.00 | 0.00 | 92 | 1016.8 |
| 20260906073526 | 72 | 322 | 0.0 | 1.0 | 0.00 | 0.00 | 0.00 | 91 | 1016.8 |
| 20260906073047 | 72 | 0 | 0.0 | 1.0 | 0.00 | 0.00 | 0.00 | 91 | 1017.0 |
| 20260906072529 | 72 | 0 | 0.0 | 1.0 | 0.00 | 0.00 | 0.00 | 91 | 1016.8 |
| 20260906072030 | 73 | 0 | 0.0 | 2.0 | 0.00 | 0.00 | 0.00 | 90 | 1016.7 |
| 20260906071547 | 73 | 0 | 0.0 | 2.0 | 0.00 | 0.00 | 0.00 | 90 | 1016.7 |
| 20260906071028 | 73 | 314 | 0.0 | 2.0 | 0.00 | 0.00 | 0.00 | 89 | 1016.7 |
| 20260906070528 | 73 | 337 | 0.0 | 2.0 | 0.00 | 0.00 | 0.00 | 89 | 1016.8 |
| 20260906070044 | 73 | 67 | 0.0 | 2.0 | 0.00 | 0.00 | 0.00 | 89 | 1016.9 |
| 20260906065527 | 73 | 109 | 0.0 | 1.0 | 0.00 | 0.00 | 0.00 | 89 | 1016.8 |
| 20260906065029 | 73 | 0 | 0.0 | 1.0 | 0.00 | 0.00 | 0.00 | 89 | 1016.7 |
| 20260906064542 | 73 | 271 | 0.0 | 1.0 | 0.00 | 0.00 | 0.00 | 89 | 1016.9 |
| 20260906064027 | 73 | 0 | 0.0 | 0.0 | 0.00 | 0.00 | 0.00 | 89 | 1017.0 |
| 20260906063531 | 73 | 0 | 0.0 | 0.0 | 0.00 | 0.00 | 0.00 | 90 | 1016.9 |
| 20260906063048 | 73 | 0 | 0.0 | 0.0 | 0.00 | 0.00 | 0.00 | 89 | 1017.1 |
| 20260906062529 | 73 | 304 | 0.0 | 0.0 | 0.00 | 0.00 | 0.00 | 89 | 1017.0 |
| 20260906062029 | 73 | 0 | 0.0 | 3.0 | 0.00 | 0.00 | 0.00 | 89 | 1017.1 |
| 20260906061549 | 73 | 0 | 0.0 | 3.0 | 0.00 | 0.00 | 0.00 | 89 | 1017.1 |
| 20260906061028 | 73 | 307 | 1.0 | 3.0 | 0.00 | 0.00 | 0.00 | 89 | 1017.0 |
| 20260906060529 | 73 | 252 | 0.0 | 3.0 | 0.00 | 0.00 | 0.00 | 89 | 1017.0 |
| 20260906060044 | 73 | 0 | 0.0 | 3.0 | 0.00 | 0.00 | 0.00 | 89 | 1016.8 |
| 20260906055528 | 73 | 0 | 0.0 | 2.0 | 0.00 | 0.00 | 0.00 | 88 | 1016.8 |
| 20260906055027 | 73 | 115 | 0.0 | 2.0 | 0.00 | 0.00 | 0.00 | 89 | 1016.8 |
| 20260906054604 | 73 | 165 | 0.0 | 2.0 | 0.00 | 0.00 | 0.00 | 89 | 1016.8 |
| 20260906054029 | 73 | 0 | 0.0 | 5.0 | 0.00 | 0.00 | 0.00 | 89 | 1016.6 |
| 20260906053526 | 74 | 337 | 0.0 | 5.0 | 0.00 | 0.00 | 0.00 | 88 | 1016.7 |
| 20260906053050 | 74 | 310 | 1.0 | 3.0 | 0.00 | 0.00 | 0.00 | 88 | 1016.6 |
| 20260906052529 | 74 | 0 | 0.0 | 4.0 | 0.00 | 0.00 | 0.00 | 88 | 1016.6 |
| 20260906052025 | 74 | 321 | 0.0 | 4.0 | 0.00 | 0.00 | 0.00 | 88 | 1016.6 |
| 20260906051551 | 74 | 0 | 0.0 | 4.0 | 0.00 | 0.00 | 0.00 | 88 | 1016.6 |
| 20260906051027 | 74 | 0 | 1.0 | 4.0 | 0.00 | 0.00 | 0.00 | 88 | 1016.5 |
| 20260906050526 | 74 | 134 | 0.0 | 5.0 | 0.00 | 0.00 | 0.00 | 88 | 1016.5 |
| 20260906050116 | 74 | 115 | 1.0 | 5.0 | 0.00 | 0.00 | 0.00 | 88 | 1016.5 |
| 20260906045527 | 74 | 0 | 0.0 | 4.0 | 0.00 | 0.00 | 0.00 | 88 | 1016.5 |
| 20260906045026 | 74 | 115 | 1.0 | 6.0 | 0.00 | 0.00 | 0.00 | 88 | 1016.5 |
| 20260906044549 | 74 | 120 | 0.0 | 6.0 | 0.00 | 0.00 | 0.00 | 88 | 1016.3 |
| 20260906044027 | 74 | 4 | 0.0 | 3.0 | 0.00 | 0.00 | 0.00 | 88 | 1016.4 |
| 20260906043529 | 74 | 111 | 0.0 | 2.0 | 0.00 | 0.00 | 0.00 | 89 | 1016.1 |
| 20260906043047 | 74 | 117 | 0.0 | 2.0 | 0.00 | 0.00 | 0.00 | 88 | 1016.1 |
| 20260906042528 | 74 | 64 | 0.0 | 3.0 | 0.00 | 0.00 | 0.00 | 88 | 1016.1 |
| 20260906042029 | 74 | 90 | 0.0 | 3.0 | 0.00 | 0.00 | 0.00 | 88 | 1016.1 |
| 20260906041546 | 74 | 0 | 1.0 | 4.0 | 0.00 | 0.00 | 0.00 | 88 | 1016.0 |
| 20260906041026 | 74 | 0 | 1.0 | 4.0 | 0.00 | 0.00 | 0.00 | 88 | 1015.8 |
| 20260906040526 | 74 | 65 | 1.0 | 4.0 | 0.00 | 0.00 | 0.00 | 88 | 1015.9 |
| 20260906040108 | 74 | 314 | 1.0 | 7.0 | 0.00 | 0.00 | 0.00 | 88 | 1015.8 |
| 20260906035526 | 74 | 117 | 1.0 | 7.0 | 0.00 | 0.00 | 0.00 | 88 | 1015.7 |
| 20260906035026 | 73 | 347 | 0.0 | 4.0 | 0.00 | 0.00 | 0.00 | 88 | 1015.7 |
| 20260906034549 | 73 | 330 | 1.0 | 4.0 | 0.00 | 0.00 | 0.00 | 88 | 1015.8 |
| 20260906034027 | 73 | 0 | 1.0 | 4.0 | 0.00 | 0.00 | 0.00 | 88 | 1015.8 |
| 20260906033529 | 73 | 57 | 1.0 | 3.0 | 0.00 | 0.00 | 0.00 | 88 | 1015.7 |
| 20260906033055 | 73 | 100 | 0.0 | 3.0 | 0.00 | 0.00 | 0.00 | 88 | 1015.7 |
| 20260906032533 | 73 | 57 | 0.0 | 6.0 | 0.00 | 0.00 | 0.00 | 88 | 1015.8 |
| 20260906032029 | 73 | 347 | 1.0 | 6.0 | 0.00 | 0.00 | 0.00 | 88 | 1015.8 |
| 20260906031542 | 73 | 114 | 0.0 | 3.0 | 0.00 | 0.00 | 0.00 | 88 | 1015.9 |
| 20260906031029 | 73 | 300 | 0.0 | 3.0 | 0.00 | 0.00 | 0.00 | 88 | 1015.8 |
| 20260906030527 | 73 | 279 | 0.0 | 3.0 | 0.00 | 0.00 | 0.00 | 88 | 1015.8 |
| 20260906030042 | 73 | 295 | 1.0 | 4.0 | 0.00 | 0.00 | 0.00 | 88 | 1015.9 |
| 20260906025526 | 73 | 288 | 1.0 | 4.0 | 0.00 | 0.00 | 0.00 | 88 | 1015.8 |
| 20260906025028 | 73 | 99 | 0.0 | 11.0 | 0.00 | 0.00 | 0.00 | 88 | 1015.7 |
| 20260906024547 | 73 | 279 | 2.0 | 11.0 | 0.00 | 0.00 | 0.00 | 88 | 1015.7 |
| 20260906024030 | 73 | 282 | 2.0 | 4.0 | 0.00 | 0.00 | 0.00 | 89 | 1015.7 |
| 20260906023528 | 73 | 37 | 1.0 | 4.0 | 0.00 | 0.00 | 0.00 | 89 | 1015.9 |
| 20260906023047 | 73 | 312 | 0.0 | 7.0 | 0.00 | 0.00 | 0.00 | 89 | 1015.8 |
| 20260906022529 | 73 | 330 | 2.0 | 8.0 | 0.00 | 0.00 | 0.00 | 89 | 1015.9 |
| 20260906022029 | 73 | 8 | 1.0 | 8.0 | 0.00 | 0.00 | 0.00 | 88 | 1015.9 |
| 20260906021550 | 73 | 323 | 1.0 | 6.0 | 0.00 | 0.00 | 0.00 | 88 | 1015.9 |
| 20260906021029 | 73 | 319 | 1.0 | 9.0 | 0.00 | 0.00 | 0.00 | 88 | 1016.0 |
| 20260906020526 | 73 | 320 | 1.0 | 9.0 | 0.00 | 0.00 | 0.00 | 88 | 1015.9 |
| 20260906020055 | 73 | 328 | 2.0 | 9.0 | 0.00 | 0.00 | 0.00 | 88 | 1015.8 |
| 20260906015527 | 73 | 334 | 1.0 | 9.0 | 0.00 | 0.00 | 0.00 | 88 | 1015.9 |
| 20260906015028 | 73 | 316 | 2.0 | 9.0 | 0.00 | 0.00 | 0.00 | 88 | 1015.8 |
| 20260906014555 | 73 | 162 | 1.0 | 9.0 | 0.00 | 0.00 | 0.00 | 88 | 1015.9 |
| 20260906014029 | 73 | 32 | 2.0 | 8.0 | 0.00 | 0.00 | 0.00 | 87 | 1015.9 |
| 20260906013526 | 73 | 275 | 2.0 | 7.0 | 0.00 | 0.00 | 0.00 | 87 | 1015.8 |
| 20260906013056 | 73 | 284 | 2.0 | 6.0 | 0.00 | 0.00 | 0.00 | 87 | 1015.7 |
| 20260906012529 | 73 | 350 | 1.0 | 5.0 | 0.00 | 0.00 | 0.00 | 87 | 1015.7 |
| 20260906012028 | 73 | 354 | 0.0 | 4.0 | 0.00 | 0.00 | 0.00 | 87 | 1015.6 |
| 20260906011557 | 74 | 37 | 1.0 | 5.0 | 0.00 | 0.00 | 0.00 | 87 | 1015.6 |
| 20260906011028 | 74 | 346 | 1.0 | 5.0 | 0.00 | 0.00 | 0.00 | 87 | 1015.7 |
| 20260906010529 | 74 | 347 | 1.0 | 5.0 | 0.00 | 0.00 | 0.00 | 87 | 1015.7 |
| 20260906010052 | 74 | 326 | 1.0 | 10.0 | 0.00 | 0.00 | 0.00 | 87 | 1015.8 |
| 20260906005527 | 74 | 334 | 1.0 | 10.0 | 0.00 | 0.00 | 0.00 | 87 | 1015.8 |
| 20260906005029 | 74 | 328 | 3.0 | 10.0 | 0.00 | 0.00 | 0.00 | 87 | 1015.6 |
| 20260906004546 | 75 | 342 | 2.0 | 7.0 | 0.00 | 0.00 | 0.00 | 86 | 1015.7 |
| 20260906004029 | 75 | 6 | 1.0 | 6.0 | 0.00 | 0.00 | 0.00 | 86 | 1015.5 |
| 20260906003530 | 75 | 347 | 2.0 | 9.0 | 0.00 | 0.00 | 0.00 | 86 | 1015.4 |
| 20260906003053 | 75 | 321 | 3.0 | 9.0 | 0.00 | 0.00 | 0.00 | 86 | 1015.4 |
| 20260906002530 | 76 | 287 | 2.0 | 9.0 | 0.00 | 0.00 | 0.00 | 85 | 1015.3 |
| 20260906002030 | 76 | 30 | 3.0 | 6.0 | 0.00 | 0.00 | 0.00 | 85 | 1015.1 |
| 20260906001553 | 76 | 342 | 1.0 | 6.0 | 0.00 | 0.00 | 0.00 | 85 | 1015.2 |
| 20260906001030 | 76 | 329 | 2.0 | 6.0 | 0.00 | 0.00 | 0.00 | 84 | 1015.1 |
| 20260906000530 | 77 | 294 | 1.0 | 6.0 | 0.00 | 0.00 | 0.00 | 84 | 1014.9 |
| 20260906000048 | 77 | 355 | 1.0 | 6.0 | 0.00 | 0.00 | 0.00 | 83 | 1014.9 |
| 20260905235530 | 78 | 271 | 3.0 | 6.0 | 0.00 | 0.00 | 0.00 | 82 | 1014.8 |
| 20260905235032 | 78 | 294 | 3.0 | 6.0 | 0.00 | 0.00 | 0.00 | 82 | 1014.7 |
| 20260905234602 | 78 | 7 | 2.0 | 7.0 | 0.00 | 0.00 | 0.00 | 81 | 1014.6 |
| 20260905234030 | 79 | 320 | 3.0 | 7.0 | 0.00 | 0.00 | 0.00 | 81 | 1014.7 |
| 20260905233532 | 79 | 330 | 2.0 | 11.0 | 0.00 | 0.00 | 0.00 | 80 | 1014.7 |
| 20260905233054 | 80 | 320 | 2.0 | 11.0 | 0.00 | 0.00 | 0.00 | 79 | 1014.6 |
| 20260905232530 | 80 | 282 | 1.0 | 6.0 | 0.00 | 0.00 | 0.00 | 78 | 1014.6 |
| 20260905232032 | 81 | 13 | 2.0 | 4.0 | 0.00 | 0.00 | 0.00 | 78 | 1014.7 |
| 20260905231555 | 81 | 297 | 1.0 | 4.0 | 0.00 | 0.00 | 0.00 | 78 | 1014.5 |
| 20260905231031 | 81 | 127 | 0.0 | 5.0 | 0.00 | 0.00 | 0.00 | 78 | 1014.5 |
| 20260905230528 | 81 | 71 | 0.0 | 8.0 | 0.00 | 0.00 | 0.00 | 77 | 1014.4 |
| 20260905230107 | 82 | 86 | 2.0 | 8.0 | 0.00 | 0.00 | 0.00 | 76 | 1014.4 |
| 20260905225527 | 82 | 302 | 1.0 | 6.0 | 0.00 | 0.00 | 0.00 | 77 | 1014.4 |
| 20260905225027 | 82 | 6 | 2.0 | 5.0 | 0.00 | 0.00 | 0.00 | 76 | 1014.1 |
| 20260905224544 | 82 | 141 | 2.0 | 5.0 | 0.00 | 0.00 | 0.00 | 75 | 1014.1 |
| 20260905224034 | 82 | 12 | 1.0 | 7.0 | 0.00 | 0.00 | 0.00 | 76 | 1014.1 |
| 20260905223530 | 82 | 324 | 1.0 | 7.0 | 0.00 | 0.00 | 0.00 | 76 | 1014.2 |
| 20260905223052 | 82 | 6 | 3.0 | 7.0 | 0.00 | 0.00 | 0.00 | 75 | 1014.2 |
| 20260905222535 | 82 | 332 | 1.0 | 5.0 | 0.00 | 0.00 | 0.00 | 75 | 1014.1 |
| 20260905222033 | 82 | 267 | 3.0 | 5.0 | 0.00 | 0.00 | 0.00 | 76 | 1014.3 |
| 20260905221548 | 83 | 338 | 1.0 | 6.0 | 0.00 | 0.00 | 0.00 | 76 | 1014.2 |
| 20260905221029 | 83 | 106 | 1.0 | 6.0 | 0.00 | 0.00 | 0.00 | 76 | 1014.2 |
| 20260905220527 | 83 | 124 | 1.0 | 5.0 | 0.00 | 0.00 | 0.00 | 76 | 1014.1 |
| 20260905220047 | 83 | 333 | 1.0 | 7.0 | 0.00 | 0.00 | 0.00 | 77 | 1014.1 |
| 20260905215530 | 83 | 342 | 3.0 | 7.0 | 0.00 | 0.00 | 0.00 | 76 | 1014.3 |
| 20260905215029 | 83 | 350 | 1.0 | 6.0 | 0.00 | 0.00 | 0.00 | 75 | 1014.3 |
| 20260905214542 | 83 | 326 | 1.0 | 6.0 | 0.00 | 0.00 | 0.00 | 77 | 1014.3 |
| 20260905214028 | 83 | 350 | 2.0 | 6.0 | 0.00 | 0.00 | 0.00 | 76 | 1014.3 |
| 20260905213531 | 83 | 323 | 2.0 | 6.0 | 0.00 | 0.00 | 0.00 | 77 | 1014.2 |
| 20260905213050 | 83 | 120 | 2.0 | 7.0 | 0.00 | 0.00 | 0.00 | 78 | 1014.2 |
| 20260905212530 | 82 | 347 | 2.0 | 7.0 | 0.00 | 0.00 | 0.00 | 78 | 1014.2 |
| 20260905212029 | 82 | 75 | 2.0 | 7.0 | 0.00 | 0.00 | 0.00 | 79 | 1014.2 |
| 20260905211601 | 83 | 304 | 3.0 | 7.0 | 0.00 | 0.00 | 0.00 | 77 | 1014.1 |
| 20260905211028 | 84 | 304 | 2.0 | 6.0 | 0.00 | 0.00 | 0.00 | 77 | 1014.1 |
| 20260905210528 | 84 | 316 | 2.0 | 6.0 | 0.00 | 0.00 | 0.00 | 76 | 1014.2 |
| 20260905210057 | 84 | 315 | 2.0 | 7.0 | 0.00 | 0.00 | 0.00 | 77 | 1014.1 |
| 20260905205528 | 84 | 352 | 3.0 | 7.0 | 0.00 | 0.00 | 0.00 | 76 | 1014.1 |
| 20260905205031 | 84 | 7 | 3.0 | 7.0 | 0.00 | 0.00 | 0.00 | 76 | 1014.2 |
| 20260905204552 | 84 | 48 | 1.0 | 8.0 | 0.00 | 0.00 | 0.00 | 76 | 1014.2 |
| 20260905204030 | 84 | 98 | 2.0 | 8.0 | 0.00 | 0.00 | 0.00 | 76 | 1014.2 |
| 20260905203528 | 84 | 302 | 4.0 | 11.0 | 0.00 | 0.00 | 0.00 | 76 | 1014.2 |
| 20260905203055 | 85 | 321 | 3.0 | 11.0 | 0.00 | 0.00 | 0.00 | 75 | 1014.2 |
| 20260905202531 | 85 | 94 | 2.0 | 6.0 | 0.00 | 0.00 | 0.00 | 76 | 1014.2 |
| 20260905202030 | 85 | 132 | 2.0 | 7.0 | 0.00 | 0.00 | 0.00 | 76 | 1014.2 |
| 20260905201543 | 84 | 327 | 3.0 | 7.0 | 0.00 | 0.00 | 0.00 | 77 | 1014.2 |
| 20260905201029 | 84 | 269 | 4.0 | 9.0 | 0.00 | 0.00 | 0.00 | 76 | 1014.3 |
| 20260905200530 | 84 | 334 | 2.0 | 9.0 | 0.00 | 0.00 | 0.00 | 76 | 1014.3 |
| 20260905200104 | 85 | 324 | 2.0 | 5.0 | 0.00 | 0.00 | 0.00 | 76 | 1014.2 |
| 20260905195528 | 85 | 319 | 2.0 | 5.0 | 0.00 | 0.00 | 0.00 | 75 | 1014.2 |
| 20260905195030 | 86 | 338 | 2.0 | 9.0 | 0.00 | 0.00 | 0.00 | 75 | 1014.1 |
| 20260905194550 | 86 | 109 | 2.0 | 9.0 | 0.00 | 0.00 | 0.00 | 75 | 1014.0 |
| 20260905194029 | 86 | 236 | 3.0 | 9.0 | 0.00 | 0.00 | 0.00 | 74 | 1014.1 |
| 20260905193529 | 86 | 23 | 2.0 | 8.0 | 0.00 | 0.00 | 0.00 | 75 | 1014.1 |